Regional Weather Roundup
Issued by NWS

Home | Current Version | Previous Version | Graphics & Text | Print | Product List | Glossary On
Versions: 1 2 3 4 5 6 7 8 9 10 11 12 13 14 15 16 17 18 19 20 21 22 23 24 25 26 27
000
ASUS45 KCYS 150910
RWRWY

WYOMING REGIONAL WEATHER ROUNDUP
NATIONAL WEATHER SERVICE CHEYENNE WY
200 AM MST MON JAN 15 2018

NOTE:  "FAIR" INDICATES FEW OR NO CLOUDS BELOW 12,000 FEET
WITH NO SIGNIFICANT WEATHER AND/OR OBSTRUCTIONS TO VISIBILITY.

WYZ001-151000-
YELLOWSTONE NATIONAL PARK

CITY           SKY/WX    TMP DP  RH WIND       PRES   REMARKS
LK YELLOWSTONE   N/A     22  21  96 CALM      30.36R
W YELLOWSTONE  NOT AVBL

$$
WYZ002>013-054>058-071-098>099-151000-
NORTHERN WYOMING

CITY           SKY/WX    TMP DP  RH WIND       PRES   REMARKS
JACKSON        CLOUDY    19  17  92 CALM      30.37F
CODY           LGT SNOW  20  16  84 N15       30.42R FOG     WCI   6
GREYBULL       CLOUDY    26  18  71 NW23      30.39R WCI  11
WORLAND        CLOUDY    27  21  78 NW18      30.39R WCI  14
SHERIDAN       CLOUDY    15  11  83 NW15      30.52R WCI   0
BUFFALO        LGT SNOW  15  10  80 N25G33    30.41R WCI  -4
GILLETTE       CLOUDY     4   1  88 NW8       30.45R FOG     WCI  -9
HULETT         FAIR       0  -6  78 NW5       30.46R WCI -10
NEWCASTLE      FAIR       3  -4  72 NW13      30.42R WCI -14

$$
WYZ014>020-022>026-101>103-151000-
CENTRAL WYOMING

CITY           SKY/WX    TMP DP  RH WIND       PRES   REMARKS
BIG PINEY      FAIR      23  18  81 NW12      30.29R WCI  12
PINEDALE       FAIR      30  21  69 NW24      30.26S WCI  16
DUBOIS         NOT AVBL
LANDER         FAIR      25  20  81 W7        30.30S WCI  17
RIVERTON       CLOUDY    29  23  78 NE9       30.31R WCI  20
CASPER         LGT SNOW  19  14  81 NE9       30.37R WCI   8
DOUGLAS        LGT SNOW  19  15  84 NW13      30.38R FOG     WCI   6

$$
WYZ021-027>030-104>119-151000-
SOUTHERN WYOMING

CITY           SKY/WX    TMP DP  RH WIND       PRES   REMARKS
EVANSTON       FAIR      26  22  84 CALM      30.30F
FORT BRIDGER   FAIR      29  23  78 W13       30.31R WCI  19
ROCK SPRINGS   FAIR      27  22  81 CALM      30.28S
DIXON            N/A     23  18  83 CALM      30.30R
RAWLINS        CLOUDY    28  22  78 N9        30.25R WCI  19
SARATOGA       CLOUDY    28  21  74 S3        30.24S
LARAMIE        CLOUDY    27  21  78 N13       30.19S WCI  16
CHEYENNE       CLOUDY    21  19  92 N9G18     30.26R WCI  11
TORRINGTON     CLOUDY    21  12  68 N16G23    30.37R WCI   7

$$




USA.gov is the U.S. government's official web portal to all federal, state and local government web resources and services.